Location: Aspenden
(51.9333°N, 0.0167°W)
Time: 07:19:49
(UTC+00:00)

Daily predictions for brighter satellites

Satellite Brightness Start Highest point End
(mag) Time Altitude Azimuth Time Altitude Azimuth Time Altitude Azimuth
Cosmos 1606 Rocket 4.1 17:09:39 10° SSE 17:13:40 37° E 17:17:45 10° NNE
CZ-4B R/B 3.4 17:12:12 10° SSE 17:17:48 82° WSW 17:23:20 10° NNW
Cosmos 1689 Rocket 3.9 17:18:32 10° ENE 17:20:04 13° E 17:21:35 10° ESE
Cosmos 2098 Rocket 4.3 17:17:21 10° NNW 17:20:13 32° W 17:22:50 10° SSW
Okean-O 3.6 17:16:44 10° ESE 17:20:26 26° ENE 17:24:08 10° N
Cosmos 1656 Rocket 4.3 17:16:04 10° SW 17:21:35 59° NW 17:27:13 10° NNE
AQUARIUS 4.2 17:17:50 10° SSE 17:22:20 89° E 17:26:53 10° NNW
NOSS 2-2 (E) 4.5 17:17:06 10° NW 17:22:25 87° NE 17:29:53 10° SE
Cosmos 1400 Rocket 4.0 17:22:07 10° SE 17:25:25 24° E 17:28:43 10° NE
Meteor 1-16 Rocket 4.4 17:20:41 10° SSW 17:26:18 79° WNW 17:31:46 10° N
Cosmos 2227 Rocket 2.4 17:21:27 10° NNW 17:26:59 50° NE 17:32:28 10° SE
Cosmos 1908 3.4 17:23:23 10° SSW 17:27:14 77° WNW 17:31:08 10° N
Cosmos 2266 Rocket 4.4 17:21:11 10° NNW 17:27:24 74° W 17:33:41 10° S
Cosmos 2058 4.2 17:24:52 10° NNE 17:27:56 20° ENE 17:31:00 10° ESE
Meteor 2-16 Rocket 4.5 17:22:12 10° N 17:28:14 61° ENE 17:34:16 10° SSE
H-2A R/B 3.2 17:24:13 10° ESE 17:28:29 24° ENE 17:32:45 10° N
Cosmos 1892 3.8 17:26:10 10° NNE 17:29:25 25° ENE 17:32:39 10° SE
GEOS 3 Rocket 4.2 17:25:35 10° ESE 17:30:37 44° NNE 17:35:44 10° NW
CZ-4 R/B 2.3 17:27:26 10° ESE 17:30:39 25° ENE 17:33:53 10° N
Cosmos 2263 Rocket 3.7 17:27:58 10° NNW 17:31:54 19° NNE 17:35:34 11° ENE
Cosmos 1408 4.0 17:30:56 10° NNE 17:33:33 18° ENE 17:36:10 10° ESE
Cosmos 1356 Rocket 4.3 17:29:47 10° SSW 17:33:59 55° WNW 17:38:15 10° N
BREEZE-M DEB (TANK) 4.0 17:30:27 10° WSW 17:34:01 82° SSE 17:46:14 12° ENE
BREEZE-M R/B 4.4 17:22:48 10° WSW 17:34:17 66° S 17:37:09 12° E
CZ-4C R/B 4.3 17:31:17 10° N 17:34:22 39° WNW 17:37:29 10° SW
NOSS 3-4 (A) 4.4 17:31:53 10° NW 17:38:03 39° NNE 17:44:11 12° E
NOSS 3-4 (C) 4.4 17:32:00 10° NW 17:38:08 39° NNE 17:44:15 13° E
CZ-4C R/B 3.7 17:32:55 10° NW 17:38:25 31° N 17:44:25 12° ENE
NOSS 2-2 (D) 4.5 17:34:45 10° NW 17:40:00 87° SW 17:47:22 10° SE
Cosmos 1953 Rocket 3.5 17:36:00 10° N 17:40:26 76° ENE 17:44:53 10° SSE
Cosmos 1300 2.7 17:39:56 10° S 17:43:40 56° E 17:47:25 10° NNE
SL-4 R/B 1.6 17:42:43 10° W 17:46:14 88° S 17:49:04 17° E
Cosmos 2058 Rocket 3.5 17:42:49 10° SSE 17:47:02 41° E 17:51:18 10° NNE
Cosmos 1697 Rocket 4.0 17:43:22 10° SE 17:47:04 18° E 17:49:37 14° ENE
Cosmos 1331 Rocket 3.9 17:42:16 10° SSW 17:47:25 73° ESE 17:52:35 10° NNE
Cosmos 1346 Rocket 3.6 17:44:46 10° N 17:48:21 30° ENE 17:51:54 10° SE
IRS-1C Rocket 4.0 17:44:11 10° SSE 17:49:25 72° ENE 17:54:42 10° NNW
CZ-2D R/B 3.4 17:45:49 10° SE 17:49:29 48° ENE 17:53:10 10° N
USA 305 2.9 17:45:38 10° WNW 17:49:58 84° NNE 17:53:27 15° ESE
SeaSat 1 3.3 17:46:28 13° E 17:50:07 30° NE 17:54:24 10° NNW
Cosmos 1825 3.5 17:47:44 10° NNE 17:50:33 19° ENE 17:51:38 17° E
Cosmos 44 3.3 17:50:16 10° SSW 17:54:43 57° SE 17:59:04 12° NE
USA 306 2.9 17:52:03 10° WNW 17:56:22 88° NNE 17:59:35 17° ESE
Cosmos 1315 Rocket 4.2 17:53:53 10° SE 17:56:20 18° E 17:56:20 18° E
NOAA 11 4.4 17:51:30 10° S 17:56:57 75° WSW 18:02:25 10° NNW
USA 215 3.5 17:51:39 14° E 17:57:10 59° N 18:03:34 10° WNW
SAR-Lupe-4 3.5 17:54:48 10° NNE 17:58:23 60° ESE 18:01:55 10° S
ERS-2 2.3 17:54:50 10° NNE 17:58:30 77° WNW 18:02:08 10° SSW
BREEZE-M R/B 3.5 17:56:36 10° W 18:00:10 70° S 18:05:18 17° E
ATLAS 2AS CENTAUR R/B 3.5 17:52:50 10° NW 18:00:10 42° NNE 18:05:17 18° E
Cosmos 968 Rocket 3.4 17:57:19 10° NNW 18:02:34 68° ENE 18:07:43 10° SE
Cosmos 1340 2.5 17:59:35 10° N 18:03:23 79° ENE 18:07:10 10° SSE
Cosmos 2297 Rocket 2.3 18:01:16 10° NNW 18:06:58 81° WSW 18:12:38 10° SSE
COSMO-SKYMED 1 2.6 18:02:50 10° NNE 18:07:09 60° ESE 18:11:27 10° S
HJ-1C 4.4 18:07:27 26° ENE 18:07:35 26° ENE 18:10:27 10° N
MOS 1 Rocket 4.2 18:03:47 10° NE 18:07:42 26° E 18:11:46 10° SSE
Cosmos 2369 Rocket 4.2 18:03:23 10° W 18:07:59 24° NW 18:12:36 10° NNE
Cosmos 1076 Rocket 4.1 18:04:29 10° N 18:08:25 34° ENE 18:11:35 14° SE
H-2A R/B 3.8 18:05:03 10° N 18:08:47 32° WNW 18:12:27 10° SW
In-Cosmos 22 Rocket 4.0 18:04:07 10° NNW 18:09:30 81° ENE 18:14:57 10° SSE
Cosmos 1980 Rocket 4.1 18:06:48 10° SE 18:07:18 11° SE 18:07:18 11° SE
Aureole 3 Rocket 3.2 18:08:27 10° S 18:12:34 70° E 18:18:22 10° NNE
Cosmos 1110 Rocket 4.4 18:10:56 10° SW 18:16:09 65° WNW 18:21:21 10° NNE
SAR-Lupe-1 4.0 18:12:39 10° NNE 18:16:17 89° E 18:19:53 10° SSW
S3M 4.2 18:10:55 10° SSE 18:16:41 46° E 18:22:31 10° NNE
CSL-04 Debris 4.3 18:11:41 10° SE 18:16:57 53° ENE 18:22:17 10° N
Cosmos 1302 Rocket 3.9 18:13:10 10° SSW 18:18:24 72° ESE 18:23:42 10° NNE
SL-08 ROCKET BODY 4.4 18:13:03 10° N 18:19:10 72° ENE 18:25:19 10° SSE
Lacrosse 5 2.5 18:15:52 10° WNW 18:20:46 47° N 18:23:30 24° ENE
FALCON 9 DEB 3.0 18:17:36 10° WNW 18:21:03 80° NNE 18:22:07 41° E
FALCON 9 DEB 3.4 18:19:53 10° SW 18:22:59 45° SSE 18:23:30 41° ESE
Cosmos 1486 Rocket 4.1 18:17:42 10° NNW 18:23:04 85° WSW 18:28:24 10° SSE
ERBS 3.4 18:20:02 10° WNW 18:23:07 33° N 18:24:02 28° NE
Okean O Rocket 4.2 18:19:53 10° SSW 18:23:23 23° W 18:26:54 10° NW
Cosmos 292 Rocket 4.0 18:18:47 10° SSW 18:23:35 74° WNW 18:28:26 10° NNE
YAOGAN 1 2.4 18:20:15 10° SSE 18:24:34 75° ENE 18:28:54 10° NNW
Aureole 3 2.6 18:23:08 10° SSW 18:26:12 78° W 18:29:12 10° N
FALCON 9 DEB 3.2 18:24:03 10° SW 18:27:09 50° SSE 18:27:30 47° SE
Cosmos 1417 Rocket 4.4 18:21:31 10° S 18:27:41 66° E 18:33:59 10° NNE
Cosmos 1812 Rocket 4.3 18:27:28 10° SSE 18:35:45 - NNE 18:30:37 32° ESE
Cosmos 1455 2.9 18:28:36 10° SSE 18:31:13 34° SE 18:31:13 34° SE
Meteor 2-8 Rocket 4.4 18:26:21 10° S 18:32:29 90° E 18:38:41 10° N
Cosmos 1503 Rocket 3.9 18:27:40 10° NNW 18:32:54 73° ENE 18:37:11 16° SSE
CZ-2C R/B 3.2 18:28:57 10° SSE 18:34:45 86° ENE 18:40:23 10° NNW
CZ-4B R/B 3.5 18:34:12 10° N 18:37:01 27° WNW 18:39:45 10° SW
Cosmos 2219 4.2 18:31:39 10° NW 18:37:12 49° WSW 18:42:43 10° S
FALCON 9 DEB 3.1 18:36:02 10° SW 18:39:09 56° SSE 18:39:09 56° SSE
USA 307 3.1 18:35:02 10° WNW 18:39:18 65° SSW 18:40:52 36° SE
Cosmos 1939 Rocket 4.4 18:37:48 10° SSW 18:41:30 36° W 18:45:09 10° NNW
Geosat FO 4.5 18:41:07 42° SE 18:42:16 86° NE 18:45:47 10° NNW
USA 308 3.2 18:39:53 10° WNW 18:44:07 62° SSW 18:45:31 39° SE
Cosmos 1354 Rocket 3.9 18:39:11 10° NNW 18:44:28 79° ENE 18:47:53 23° SSE
Meteor 2-10 Rocket 3.4 18:40:19 10° S 18:45:34 70° E 18:50:41 10° NNE
Cosmos 2082 3.7 18:40:17 10° NNW 18:46:03 85° WSW 18:50:45 16° SSE
Cosmos 1553 Rocket 4.0 18:39:48 10° S 18:46:10 86° W 18:52:29 10° N
Helios 1A Rocket 4.1 18:44:58 10° S 18:48:54 44° W 18:52:52 10° NNW
FALCON 9 DEB 3.4 18:47:36 10° WSW 18:50:17 55° SSW 18:50:17 55° SSW
Cosmos 2278 Rocket 4.5 18:49:45 10° N 18:51:24 11° N 18:53:02 10° NNE
Cosmos 1689 Rocket 3.6 18:48:42 10° N 18:51:25 36° WNW 18:54:06 10° SW
ATLAS 5 CENTAUR R/B 3.6 18:49:02 10° WNW 18:52:47 23° N 18:55:00 18° NNE
Meteor 2-15 Rocket 4.3 18:47:55 10° S 18:54:02 73° E 19:00:11 10° NNE
SKYMED 2 4.5 18:51:00 10° N 18:55:13 49° WNW 18:59:24 10° SW
Okean-O 3.7 18:52:28 10° S 18:56:43 45° W 19:01:00 10° NNW
Cosmos 2151 3.6 18:53:00 10° N 18:56:04 40° NNE 18:56:04 40° NNE
Cosmos 1992 Rocket 3.9 18:52:16 10° S 18:57:25 65° ESE 18:59:49 32° NE
ARGOS 3.0 18:54:41 19° SSE 18:58:36 77° ENE 19:04:03 10° NNW
SL-08 RB Rocket 3.7 19:00:38 56° NE 19:00:38 56° NE 19:04:50 10° N
Cosmos 1400 Rocket 4.2 18:57:50 10° SW 19:01:42 39° WNW 19:05:34 10° N
Cosmos 2369 3.7 18:56:47 10° S 19:02:19 53° ESE 19:03:11 49° E
Cosmos 2058 3.8 19:01:10 10° NNW 19:05:09 49° W 19:09:05 10° S
Cosmos 1892 4.4 19:01:38 10° NNW 19:05:11 34° W 19:08:42 10° SSW
Cosmos 1844 Rocket 4.2 19:01:10 10° NNW 19:05:18 20° NNE 19:05:18 20° NNE
Cosmos 1656 3.7 18:59:50 10° SW 19:05:25 79° WNW 19:10:04 16° NNE
CZ-4 R/B 2.9 19:01:59 10° SSW 19:05:35 35° W 19:09:10 10° NNW
H-2A R/B 2.3 19:01:59 10° S 19:07:24 73° WSW 19:12:53 10° NNW
Ariane Rocket 3.2 19:07:51 50° NE 19:07:51 50° NE 19:12:29 10° N
Geosat 3.9 19:06:43 55° ENE 19:07:39 67° ESE 19:12:39 10° SSW
GEOS 3 Rocket 4.0 19:05:41 28° SSE 19:08:32 62° SW 19:13:54 10° NW
Cosmos 1408 3.7 19:05:18 10° NNW 19:08:47 43° W 19:11:40 14° SSW
Cosmos 1745 Rocket 4.4 19:02:37 10° NNW 19:08:50 63° W 19:15:04 10° S
Cosmos 220 Rocket 3.9 19:06:19 10° SSW 19:10:42 88° ESE 19:10:52 83° NE
Cosmos 2227 Rocket 3.7 19:05:47 10° NW 19:10:54 36° WSW 19:15:59 10° S
CSL-04 Rocket 4.1 19:11:15 10° S 19:16:44 62° WSW 19:22:13 10° NNW
Cosmos 2263 Rocket 2.2 19:11:28 10° NNW 19:17:06 57° NE 19:17:16 57° ENE
Timation 1 Rocket 4.4 19:12:01 10° NW 19:18:02 75° WSW 19:20:34 37° SSE
Meteor 2-1 Rocket 4.4 19:19:49 10° SSW 19:25:18 68° WNW 19:30:51 10° N
SL-4 R/B 3.0 19:22:10 10° W 19:24:39 38° WSW 19:24:39 38° WSW
Cosmos 1825 3.2 19:22:39 10° NNW 19:26:17 43° W 19:26:28 43° WSW
SeaSat 1 2.7 19:26:16 50° S 19:27:22 64° WSW 19:32:19 10° NW
CZ-4C R/B 3.1 19:21:49 10° NW 19:28:23 53° NNE 19:29:36 49° ENE
NOSS 3-4 (A) 3.7 19:22:53 10° NW 19:29:45 88° NE 19:31:39 54° SE
USA 305 4.1 19:25:49 10° WNW 19:29:36 35° SW 19:29:36 35° SW
NOSS 3-4 (C) 3.7 19:22:59 10° NW 19:29:51 88° NE 19:31:43 55° SE
Cosmos 1697 Rocket 2.6 19:24:38 10° SSW 19:30:16 89° WNW 19:31:25 59° NNE
Cosmos 2184 Rocket 4.3 19:25:51 10° N 19:31:04 48° NE 19:31:04 48° NE
Cosmos 1315 Rocket 3.9 19:29:02 10° SSW 19:32:10 42° WSW 19:32:10 42° WSW
USA 306 4.3 19:32:16 10° WNW 19:35:44 32° SW 19:35:44 32° SW
DEBRIS 4.2 19:21:20 10° WSW 19:36:25 61° SSE 19:36:49 59° SSE
Cosmos 1709 Rocket 4.3 19:32:18 10° NNW 19:38:38 65° W 19:44:29 12° S
USA 215 3.1 19:39:00 67° ESE 19:40:00 88° NNE 19:46:35 10° WNW
NOSS 3-3 (A) 3.8 19:35:22 10° SW 19:41:18 85° SE 19:41:47 77° ENE
NOSS 3-3 (C) 3.8 19:35:28 10° SW 19:41:26 84° SE 19:41:53 77° ENE
SJ 16-02 3.6 19:39:56 10° N 19:41:07 17° N 19:41:07 17° N
MOS 1 Rocket 4.2 19:41:43 10° N 19:46:09 48° WNW 19:50:51 10° SW
Cosmos 1777 Rocket 4.3 19:46:37 10° NNW 19:51:06 62° WNW 19:51:06 62° WNW
ATLAS 2AS CENTAUR R/B 2.7 19:44:18 10° NW 19:51:58 88° SW 19:52:43 74° SE
Cosmos 2074 Rocket 4.2 19:46:02 10° N 19:51:03 57° NNE 19:51:03 57° NNE
Cosmos 1980 Rocket 3.8 19:47:19 10° SSW 19:49:11 22° SSW 19:49:11 22° SSW
IRS-1A Rocket 4.3 19:53:27 74° W 19:53:27 74° W 19:58:49 10° NNW
Meteor 2-17 Rocket 4.4 19:49:20 10° NNW 19:55:02 79° NNW 19:55:02 79° NNW
COSMOS 2455 4.2 19:50:42 10° NNW 19:55:08 28° NNE 19:55:08 28° NNE
Resurs 01 Rocket 4.2 20:02:02 13° N 20:02:02 13° N 20:02:30 10° N
MOS 1 4.5 20:00:46 69° WNW 20:00:46 69° WNW 20:06:00 10° NNW
Cosmos 2315 Rocket 4.2 19:55:21 10° SSW 20:01:31 67° WNW 20:07:43 10° N
Lacrosse 5 2.9 19:59:14 10° WNW 20:02:41 42° NW 20:02:41 42° NW
Meteor 2-3 Rocket 4.4 20:12:09 10° NNW 20:17:02 52° WNW 20:17:02 52° WNW
Cosmos 2278 Rocket 4.4 20:33:37 10° NNW 20:35:28 16° N 20:35:28 16° N
ATLAS 5 CENTAUR R/B 4.1 20:34:27 10° NW 20:36:32 21° NNW 20:36:32 21° NNW
Cosmos 2263 Rocket 4.1 20:55:49 10° NW 20:58:58 26° WNW 20:58:58 26° WNW
CZ-4C R/B 3.8 21:10:19 10° NW 21:14:46 42° WNW 21:14:46 42° WNW
